PRAETORIAN SDA_621

Last updated on Sat Jun 27 2026 00:03:47 GMT+0000 (Coordinated Universal Time)

1 65584U 25203V 26177.48777164 .00000078 00000+0 59588-4 0 9990 2 65584 81.3021 2.1147 0007860 154.1412 206.0139 13.83802141 39980
UTC large
Height (km)
Speed (km/s)
/
Latitude / Longitude
Inclination (degrees)
Orbital Period (minutes)
Azimuth
Elevation
Range (km)
Doppler Factor

Next 0 passes for location: London (51.5072 / 0.1276)

No passes found over London.
PRAETORIAN SDA_621